Location: Mannheim
(49.4880°N, 8.4650°E)
Time: 02:27:05
(UTC+01:00)

ISS - Pass Details

Date: 21 September 2018
Orbit: 402 x 408 km, 51.6° (Epoch: 18 November)

Event Time Altitude Azimuth Distance (km) Brightness Sun altitude
Rises 21:03:08 0° 205° (SSW) 2,334 0.1 -16.2°
Reaches altitude 10° 21:05:37 10° 186° (S) 1,476 -1.1 -16.5°
Enters shadow 21:05:51 11° 183° (S) 1,412 -1.3 -16.6°
